Wetterdaten: Woche 09.06.25 - 15.06.25 (KW24)
Datum Zeit Temp. I. Temp. A. Feuchte I. Feuchte A. Luftdruck Regen Wind Richtung Sonnenschein Solar Taupunkt Windchill Windböen
09.06.2025 00:00 21,1 °C 11,3 °C 58 % 82 % 1018,0 hPa 0,0 l/m² 21,1 km/h (4 Bft) SW 0,00 h 0 W/m² 8,3 °C 4,7 °C 30,1 km/h (5 Bft)
09.06.2025 01:00 21,1 °C 11,3 °C 58 % 82 % 1018,5 hPa 0,0 l/m² 20,7 km/h (4 Bft) SW 0,00 h 0 W/m² 8,3 °C 4,8 °C 29,3 km/h (5 Bft)
09.06.2025 02:00 21,0 °C 11,1 °C 58 % 81 % 1019,0 hPa 0,0 l/m² 19,6 km/h (3 Bft) W-SW 0,00 h 0 W/m² 8,0 °C 4,9 °C 26,8 km/h (4 Bft)
09.06.2025 03:00 20,9 °C 10,6 °C 58 % 82 % 1019,6 hPa 0,0 l/m² 15,8 km/h (3 Bft) SW 0,00 h 0 W/m² 7,6 °C 5,5 °C 21,8 km/h (4 Bft)
09.06.2025 04:00 20,9 °C 10,1 °C 58 % 84 % 1020,1 hPa 0,0 l/m² 11,8 km/h (2 Bft) SW 0,00 h 5 W/m² 7,5 °C 6,9 °C 16,7 km/h (3 Bft)
09.06.2025 05:00 20,8 °C 9,1 °C 58 % 87 % 1021,1 hPa 0,0 l/m² 13,1 km/h (3 Bft) SW 0,00 h 27 W/m² 7,0 °C 5,0 °C 18,5 km/h (3 Bft)
09.06.2025 06:00 20,8 °C 9,3 °C 58 % 86 % 1021,6 hPa 0,0 l/m² 12,6 km/h (2 Bft) SW 0,73 h 76 W/m² 7,0 °C 5,4 °C 18,0 km/h (3 Bft)
09.06.2025 07:00 20,7 °C 10,3 °C 58 % 83 % 1021,9 hPa 0,0 l/m² 10,4 km/h (2 Bft) SW 1,00 h 184 W/m² 7,5 °C 7,8 °C 13,8 km/h (3 Bft)
09.06.2025 08:00 20,7 °C 11,0 °C 58 % 81 % 1022,5 hPa 0,0 l/m² 8,6 km/h (2 Bft) SW 1,00 h 134 W/m² 7,9 °C 9,5 °C 11,5 km/h (2 Bft)
09.06.2025 09:00 20,9 °C 11,8 °C 60 % 80 % 1022,5 hPa 0,0 l/m² 9,0 km/h (2 Bft) SW 1,00 h 121 W/m² 8,5 °C 10,1 °C 12,7 km/h (3 Bft)
09.06.2025 10:00 20,9 °C 13,6 °C 58 % 76 % 1022,5 hPa 0,0 l/m² 9,1 km/h (2 Bft) SW 1,00 h 269 W/m² 9,5 °C 12,0 °C 12,6 km/h (3 Bft)
09.06.2025 11:00 20,8 °C 15,5 °C 57 % 71 % 1022,7 hPa 0,0 l/m² 14,4 km/h (3 Bft) W-SW 1,00 h 481 W/m² 10,2 °C 12,2 °C 20,7 km/h (4 Bft)
09.06.2025 12:00 21,0 °C 17,5 °C 61 % 63 % 1022,6 hPa 0,0 l/m² 18,0 km/h (3 Bft) W-SW 1,00 h 646 W/m² 10,4 °C 13,4 °C 25,9 km/h (4 Bft)
09.06.2025 13:00 21,1 °C 18,1 °C 60 % 59 % 1022,6 hPa 0,0 l/m² 15,0 km/h (3 Bft) W-SW 0,98 h 617 W/m² 9,9 °C 15,0 °C 23,1 km/h (4 Bft)
09.06.2025 14:00 21,0 °C 18,7 °C 59 % 58 % 1022,5 hPa 0,0 l/m² 9,7 km/h (2 Bft) W-NW 1,02 h 594 W/m² 10,3 °C 17,3 °C 16,7 km/h (3 Bft)
09.06.2025 15:00 21,1 °C 19,3 °C 59 % 58 % 1022,5 hPa 0,0 l/m² 6,0 km/h (2 Bft) W 1,00 h 551 W/m² 10,9 °C 18,9 °C 11,3 km/h (2 Bft)
09.06.2025 16:00 21,2 °C 19,2 °C 59 % 58 % 1022,4 hPa 0,0 l/m² 4,5 km/h (1 Bft) NW 1,00 h 450 W/m² 10,8 °C 19,1 °C 8,9 km/h (2 Bft)
09.06.2025 17:00 21,1 °C 18,8 °C 59 % 59 % 1022,1 hPa 0,0 l/m² 2,0 km/h (1 Bft) W 1,00 h 248 W/m² 10,7 °C 18,8 °C 4,3 km/h (1 Bft)
09.06.2025 18:00 21,0 °C 19,0 °C 59 % 59 % 1021,9 hPa 0,0 l/m² 3,1 km/h (1 Bft) W 1,00 h 187 W/m² 10,7 °C 18,9 °C 5,8 km/h (2 Bft)
09.06.2025 19:00 21,1 °C 17,9 °C 60 % 63 % 1022,1 hPa 0,0 l/m² 5,4 km/h (1 Bft) W-SW 1,00 h 90 W/m² 10,8 °C 17,6 °C 8,3 km/h (2 Bft)
09.06.2025 20:00 21,2 °C 16,4 °C 61 % 72 % 1022,2 hPa 0,0 l/m² 0,6 km/h (0 Bft) W-SW 0,12 h 33 W/m² 11,3 °C 16,4 °C 1,4 km/h (1 Bft)
09.06.2025 21:00 21,3 °C 14,3 °C 61 % 82 % 1022,2 hPa 0,0 l/m² 0,0 km/h (0 Bft) W-SW 0,00 h 7 W/m² 11,3 °C 14,3 °C 0,1 km/h (0 Bft)
09.06.2025 22:00 21,2 °C 12,2 °C 60 % 89 % 1022,2 hPa 0,0 l/m² 0,0 km/h (0 Bft) W-SW 0,00 h 0 W/m² 10,3 °C 12,2 °C 0,0 km/h (0 Bft)
09.06.2025 23:00 21,0 °C 10,8 °C 60 % 91 % 1021,9 hPa 0,0 l/m² 0,0 km/h (0 Bft) W-SW 0,00 h 0 W/m² 9,5 °C 10,8 °C 0,0 km/h (0 Bft)
10.06.2025 00:00 20,9 °C 9,5 °C 60 % 92 % 1021,7 hPa 0,0 l/m² 0,0 km/h (0 Bft) W-SW 0,00 h 0 W/m² 8,3 °C 9,5 °C 0,0 km/h (0 Bft)
10.06.2025 01:00 20,9 °C 9,0 °C 60 % 93 % 1021,4 hPa 0,0 l/m² 0,1 km/h (0 Bft) W-SW 0,00 h 0 W/m² 7,9 °C 9,0 °C 0,2 km/h (0 Bft)
10.06.2025 02:00 20,9 °C 8,4 °C 60 % 93 % 1020,9 hPa 0,0 l/m² 0,5 km/h (0 Bft) W-SW 0,00 h 0 W/m² 7,4 °C 8,4 °C 0,8 km/h (0 Bft)
10.06.2025 03:00 20,8 °C 8,1 °C 60 % 94 % 1020,3 hPa 0,0 l/m² 0,2 km/h (0 Bft) W-SW 0,00 h 0 W/m² 7,1 °C 8,1 °C 0,4 km/h (0 Bft)
10.06.2025 04:00 20,8 °C 7,9 °C 60 % 94 % 1019,7 hPa 0,0 l/m² 0,6 km/h (0 Bft) W-SW 0,00 h 0 W/m² 7,0 °C 7,9 °C 1,0 km/h (0 Bft)
10.06.2025 05:00 20,8 °C 8,5 °C 60 % 94 % 1019,4 hPa 0,0 l/m² 0,3 km/h (0 Bft) W-SW 0,02 h 23 W/m² 7,5 °C 8,5 °C 0,9 km/h (0 Bft)
10.06.2025 06:00 20,7 °C 9,7 °C 60 % 94 % 1018,9 hPa 0,0 l/m² 0,7 km/h (0 Bft) W-SW 1,00 h 87 W/m² 8,8 °C 9,7 °C 1,6 km/h (1 Bft)
10.06.2025 07:00 20,7 °C 11,7 °C 59 % 91 % 1018,4 hPa 0,0 l/m² 0,6 km/h (0 Bft) W-SW 1,00 h 136 W/m² 10,3 °C 11,7 °C 1,5 km/h (1 Bft)
10.06.2025 08:00 20,7 °C 13,8 °C 59 % 85 % 1017,8 hPa 0,0 l/m² 4,9 km/h (1 Bft) S-SO 1,00 h 214 W/m² 11,3 °C 13,6 °C 7,1 km/h (2 Bft)
10.06.2025 09:00 20,6 °C 15,5 °C 59 % 77 % 1017,0 hPa 0,0 l/m² 12,5 km/h (2 Bft) S 1,00 h 227 W/m² 11,5 °C 12,7 °C 17,7 km/h (3 Bft)
10.06.2025 10:00 20,6 °C 17,0 °C 59 % 74 % 1016,5 hPa 0,0 l/m² 11,0 km/h (2 Bft) S 1,00 h 270 W/m² 12,3 °C 15,1 °C 15,3 km/h (3 Bft)
10.06.2025 11:00 20,6 °C 17,8 °C 58 % 70 % 1016,1 hPa 0,0 l/m² 10,4 km/h (2 Bft) SW 0,98 h 251 W/m² 12,2 °C 16,1 °C 14,6 km/h (3 Bft)
10.06.2025 12:00 20,6 °C 18,1 °C 58 % 69 % 1015,1 hPa 0,0 l/m² 12,3 km/h (2 Bft) S-SW 1,02 h 251 W/m² 12,3 °C 15,8 °C 17,2 km/h (3 Bft)
10.06.2025 13:00 20,5 °C 18,2 °C 58 % 69 % 1014,4 hPa 0,0 l/m² 11,5 km/h (2 Bft) S-SW 1,00 h 132 W/m² 12,5 °C 16,3 °C 15,7 km/h (3 Bft)
10.06.2025 14:00 20,5 °C 19,0 °C 58 % 68 % 1013,7 hPa 0,0 l/m² 12,6 km/h (3 Bft) S-SW 1,00 h 165 W/m² 13,0 °C 16,8 °C 17,2 km/h (3 Bft)
10.06.2025 15:00 20,5 °C 18,4 °C 58 % 74 % 1013,0 hPa 0,0 l/m² 12,3 km/h (2 Bft) SW 1,00 h 153 W/m² 13,6 °C 16,1 °C 17,5 km/h (3 Bft)
10.06.2025 16:00 20,5 °C 18,6 °C 58 % 74 % 1012,5 hPa 0,0 l/m² 10,3 km/h (2 Bft) SW 0,78 h 87 W/m² 13,9 °C 17,0 °C 14,9 km/h (3 Bft)
10.06.2025 17:00 20,5 °C 16,8 °C 59 % 86 % 1012,7 hPa 1,4 l/m² 4,5 km/h (1 Bft) NW 0,82 h 89 W/m² 14,4 °C 16,7 °C 8,7 km/h (2 Bft)
10.06.2025 18:00 20,7 °C 16,0 °C 61 % 91 % 1012,9 hPa 1,0 l/m² 1,4 km/h (1 Bft) W 0,78 h 78 W/m² 14,6 °C 16,0 °C 4,3 km/h (1 Bft)
10.06.2025 19:00 20,7 °C 15,8 °C 61 % 92 % 1013,1 hPa 0,0 l/m² 1,5 km/h (1 Bft) W-NW 0,03 h 32 W/m² 14,6 °C 15,8 °C 3,7 km/h (1 Bft)
10.06.2025 20:00 20,8 °C 15,6 °C 62 % 93 % 1013,3 hPa 0,2 l/m² 2,1 km/h (1 Bft) W-SW 0,00 h 25 W/m² 14,5 °C 15,6 °C 3,8 km/h (1 Bft)
10.06.2025 21:00 20,8 °C 14,8 °C 61 % 93 % 1013,7 hPa 0,0 l/m² 6,0 km/h (2 Bft) SW 0,00 h 9 W/m² 13,6 °C 14,4 °C 8,7 km/h (2 Bft)
10.06.2025 22:00 20,7 °C 13,7 °C 61 % 93 % 1014,1 hPa 0,0 l/m² 5,1 km/h (1 Bft) SW 0,00 h 0 W/m² 12,6 °C 13,6 °C 8,0 km/h (2 Bft)
10.06.2025 23:00 20,6 °C 13,3 °C 61 % 93 % 1014,7 hPa 0,0 l/m² 5,4 km/h (2 Bft) W-SW 0,00 h 0 W/m² 12,1 °C 13,1 °C 8,3 km/h (2 Bft)
11.06.2025 00:00 20,6 °C 12,4 °C 61 % 92 % 1015,3 hPa 0,0 l/m² 6,3 km/h (2 Bft) W-SW 0,00 h 0 W/m² 11,1 °C 12,1 °C 11,1 km/h (2 Bft)
11.06.2025 01:00 20,6 °C 12,2 °C 61 % 90 % 1016,1 hPa 0,0 l/m² 6,4 km/h (2 Bft) W 0,00 h 0 W/m² 10,5 °C 11,5 °C 11,3 km/h (2 Bft)
11.06.2025 02:00 20,5 °C 11,3 °C 61 % 89 % 1016,8 hPa 0,0 l/m² 5,1 km/h (1 Bft) W-SW 0,00 h 0 W/m² 9,6 °C 11,2 °C 9,5 km/h (2 Bft)
11.06.2025 03:00 20,4 °C 11,2 °C 61 % 90 % 1017,6 hPa 0,0 l/m² 6,7 km/h (2 Bft) W-SW 0,00 h 0 W/m² 9,6 °C 10,7 °C 11,0 km/h (2 Bft)
11.06.2025 04:00 20,4 °C 10,9 °C 60 % 89 % 1018,3 hPa 0,0 l/m² 8,0 km/h (2 Bft) W-SW 0,00 h 0 W/m² 9,2 °C 9,8 °C 13,7 km/h (3 Bft)
11.06.2025 05:00 20,4 °C 10,3 °C 61 % 89 % 1018,9 hPa 0,0 l/m² 4,2 km/h (1 Bft) W 0,00 h 18 W/m² 8,6 °C 10,3 °C 7,8 km/h (2 Bft)
11.06.2025 06:00 20,4 °C 11,3 °C 61 % 90 % 1019,5 hPa 0,0 l/m² 3,8 km/h (1 Bft) W-SW 0,78 h 91 W/m² 9,6 °C 11,1 °C 6,8 km/h (2 Bft)
11.06.2025 07:00 20,4 °C 13,2 °C 60 % 83 % 1020,0 hPa 0,0 l/m² 9,6 km/h (2 Bft) W 1,00 h 225 W/m² 10,4 °C 11,4 °C 17,0 km/h (3 Bft)
11.06.2025 08:00 20,4 °C 14,3 °C 60 % 79 % 1020,5 hPa 0,0 l/m² 8,7 km/h (2 Bft) W-NW 1,00 h 308 W/m² 10,8 °C 13,0 °C 15,9 km/h (3 Bft)
11.06.2025 09:00 20,4 °C 15,3 °C 60 % 77 % 1021,1 hPa 0,0 l/m² 7,7 km/h (2 Bft) W-NW 1,00 h 445 W/m² 11,3 °C 14,4 °C 14,9 km/h (3 Bft)
11.06.2025 10:00 20,4 °C 15,9 °C 59 % 73 % 1021,3 hPa 0,0 l/m² 7,3 km/h (2 Bft) W 1,00 h 434 W/m² 11,1 °C 15,2 °C 13,4 km/h (3 Bft)
11.06.2025 11:00 20,4 °C 16,3 °C 59 % 70 % 1021,5 hPa 0,0 l/m² 6,7 km/h (2 Bft) W 1,00 h 384 W/m² 10,8 °C 15,8 °C 12,2 km/h (2 Bft)
11.06.2025 12:00 20,4 °C 17,6 °C 59 % 66 % 1021,7 hPa 0,0 l/m² 6,3 km/h (2 Bft) W-NW 0,98 h 511 W/m² 11,1 °C 17,3 °C 12,2 km/h (2 Bft)
11.06.2025 13:00 20,4 °C 19,0 °C 59 % 62 % 1021,8 hPa 0,0 l/m² 6,9 km/h (2 Bft) W 1,02 h 818 W/m² 11,6 °C 18,5 °C 13,3 km/h (3 Bft)
11.06.2025 14:00 20,5 °C 20,5 °C 59 % 58 % 1021,7 hPa 0,0 l/m² 8,1 km/h (2 Bft) W 0,98 h 890 W/m² 11,9 °C 19,8 °C 15,1 km/h (3 Bft)
11.06.2025 15:00 20,6 °C 20,9 °C 59 % 55 % 1021,5 hPa 0,0 l/m² 6,5 km/h (2 Bft) W 1,02 h 775 W/m² 11,4 °C 20,4 °C 12,3 km/h (2 Bft)
11.06.2025 16:00 20,6 °C 20,8 °C 59 % 53 % 1021,3 hPa 0,0 l/m² 5,7 km/h (2 Bft) W 1,00 h 641 W/m² 10,9 °C 20,6 °C 10,8 km/h (2 Bft)
11.06.2025 17:00 20,6 °C 20,8 °C 56 % 54 % 1021,3 hPa 0,0 l/m² 6,3 km/h (2 Bft) W 1,00 h 502 W/m² 11,1 °C 20,4 °C 12,1 km/h (2 Bft)
11.06.2025 18:00 20,6 °C 20,2 °C 58 % 56 % 1021,4 hPa 0,0 l/m² 6,2 km/h (2 Bft) N-NW 1,00 h 133 W/m² 11,0 °C 19,8 °C 11,7 km/h (2 Bft)
11.06.2025 19:00 20,6 °C 19,3 °C 58 % 58 % 1021,3 hPa 0,0 l/m² 6,1 km/h (2 Bft) N-NW 0,60 h 55 W/m² 11,0 °C 19,1 °C 10,3 km/h (2 Bft)
11.06.2025 20:00 20,7 °C 17,6 °C 58 % 66 % 1021,3 hPa 0,0 l/m² 2,7 km/h (1 Bft) N-NW 0,00 h 27 W/m² 11,1 °C 17,5 °C 4,4 km/h (1 Bft)
11.06.2025 21:00 20,6 °C 14,1 °C 58 % 81 % 1021,7 hPa 0,0 l/m² 0,0 km/h (0 Bft) N-NW 0,00 h 9 W/m² 10,8 °C 14,1 °C 0,0 km/h (0 Bft)
11.06.2025 22:00 20,6 °C 11,7 °C 59 % 88 % 1022,1 hPa 0,0 l/m² 0,0 km/h (0 Bft) NW 0,00 h 0 W/m² 9,7 °C 11,7 °C 0,0 km/h (0 Bft)
11.06.2025 23:00 20,5 °C 10,3 °C 59 % 91 % 1022,4 hPa 0,0 l/m² 0,0 km/h (0 Bft) NW 0,00 h 0 W/m² 8,9 °C 10,3 °C 0,0 km/h (0 Bft)
12.06.2025 00:00 20,4 °C 9,4 °C 59 % 92 % 1022,6 hPa 0,0 l/m² 0,0 km/h (0 Bft) NW 0,00 h 0 W/m² 8,1 °C 9,4 °C 0,0 km/h (0 Bft)
12.06.2025 01:00 20,4 °C 8,7 °C 59 % 93 % 1022,7 hPa 0,0 l/m² 0,0 km/h (0 Bft) NW 0,00 h 0 W/m² 7,6 °C 8,7 °C 0,0 km/h (0 Bft)
12.06.2025 02:00 20,4 °C 7,8 °C 59 % 93 % 1022,8 hPa 0,0 l/m² 0,0 km/h (0 Bft) NW 0,00 h 0 W/m² 6,8 °C 7,8 °C 0,2 km/h (0 Bft)
12.06.2025 03:00 20,4 °C 6,8 °C 59 % 94 % 1022,7 hPa 0,0 l/m² 0,2 km/h (0 Bft) W-NW 0,00 h 0 W/m² 5,8 °C 6,8 °C 0,6 km/h (0 Bft)
12.06.2025 04:00 20,3 °C 6,2 °C 59 % 94 % 1022,5 hPa 0,0 l/m² 0,2 km/h (0 Bft) W 0,00 h 5 W/m² 5,3 °C 6,2 °C 1,0 km/h (0 Bft)
12.06.2025 05:00 20,3 °C 6,4 °C 59 % 94 % 1022,4 hPa 0,0 l/m² 0,0 km/h (0 Bft) W 0,05 h 24 W/m² 5,5 °C 6,4 °C 0,0 km/h (0 Bft)
12.06.2025 06:00 20,3 °C 8,2 °C 59 % 95 % 1022,8 hPa 0,0 l/m² 0,0 km/h (0 Bft) W 1,00 h 119 W/m² 7,5 °C 8,2 °C 0,0 km/h (0 Bft)
12.06.2025 07:00 20,3 °C 11,8 °C 58 % 93 % 1023,1 hPa 0,0 l/m² 1,1 km/h (1 Bft) W 1,00 h 227 W/m² 10,7 °C 11,8 °C 1,7 km/h (1 Bft)
12.06.2025 08:00 20,3 °C 15,3 °C 58 % 80 % 1023,3 hPa 0,0 l/m² 8,7 km/h (2 Bft) O 1,00 h 381 W/m² 11,8 °C 14,1 °C 12,7 km/h (3 Bft)
12.06.2025 09:00 20,3 °C 17,9 °C 58 % 69 % 1023,1 hPa 0,0 l/m² 10,1 km/h (2 Bft) O-NO 1,00 h 607 W/m² 12,1 °C 16,3 °C 15,1 km/h (3 Bft)
12.06.2025 10:00 20,4 °C 20,0 °C 58 % 64 % 1023,1 hPa 0,0 l/m² 10,0 km/h (2 Bft) O 1,00 h 755 W/m² 12,9 °C 18,7 °C 14,7 km/h (3 Bft)
12.06.2025 11:00 20,4 °C 21,3 °C 58 % 58 % 1023,2 hPa 0,0 l/m² 9,0 km/h (2 Bft) O 1,00 h 853 W/m² 12,8 °C 20,4 °C 14,1 km/h (3 Bft)
12.06.2025 12:00 20,4 °C 22,1 °C 58 % 57 % 1022,9 hPa 0,0 l/m² 11,5 km/h (2 Bft) O 1,00 h 906 W/m² 13,2 °C 20,6 °C 17,1 km/h (3 Bft)
12.06.2025 13:00 20,4 °C 22,9 °C 58 % 54 % 1022,6 hPa 0,0 l/m² 9,6 km/h (2 Bft) O 1,00 h 915 W/m² 13,1 °C 21,9 °C 14,4 km/h (3 Bft)
12.06.2025 14:00 20,4 °C 23,4 °C 58 % 53 % 1022,1 hPa 0,0 l/m² 12,0 km/h (2 Bft) O 1,00 h 876 W/m² 13,2 °C 22,0 °C 17,3 km/h (3 Bft)
12.06.2025 15:00 20,4 °C 23,8 °C 58 % 50 % 1021,6 hPa 0,0 l/m² 11,1 km/h (2 Bft) O 1,00 h 790 W/m² 12,9 °C 22,7 °C 16,9 km/h (3 Bft)
12.06.2025 16:00 20,4 °C 24,1 °C 58 % 48 % 1021,3 hPa 0,0 l/m² 11,2 km/h (2 Bft) O 1,00 h 671 W/m² 12,3 °C 23,0 °C 16,0 km/h (3 Bft)
12.06.2025 17:00 20,6 °C 23,9 °C 55 % 46 % 1021,2 hPa 0,0 l/m² 10,2 km/h (2 Bft) O 1,00 h 515 W/m² 11,4 °C 22,9 °C 14,7 km/h (3 Bft)
12.06.2025 18:00 20,6 °C 23,3 °C 51 % 45 % 1020,8 hPa 0,0 l/m² 12,1 km/h (2 Bft) O 0,85 h 175 W/m² 10,8 °C 21,9 °C 17,4 km/h (3 Bft)
12.06.2025 19:00 20,6 °C 22,5 °C 52 % 47 % 1020,9 hPa 0,0 l/m² 8,9 km/h (2 Bft) O 0,00 h 40 W/m² 10,7 °C 21,7 °C 13,8 km/h (3 Bft)
12.06.2025 20:00 20,8 °C 21,1 °C 55 % 54 % 1021,4 hPa 0,0 l/m² 2,8 km/h (1 Bft) NO 0,00 h 25 W/m² 11,5 °C 21,1 °C 5,0 km/h (1 Bft)
12.06.2025 21:00 20,8 °C 17,9 °C 55 % 67 % 1021,8 hPa 0,0 l/m² 2,2 km/h (1 Bft) NO 0,00 h 9 W/m² 11,6 °C 17,9 °C 3,5 km/h (1 Bft)
12.06.2025 22:00 20,8 °C 14,0 °C 56 % 83 % 1022,2 hPa 0,0 l/m² 0,9 km/h (0 Bft) NO 0,00 h 0 W/m² 11,1 °C 14,0 °C 1,4 km/h (1 Bft)
12.06.2025 23:00 20,6 °C 12,8 °C 57 % 84 % 1022,8 hPa 0,0 l/m² 0,5 km/h (0 Bft) NO 0,00 h 0 W/m² 10,1 °C 12,8 °C 1,4 km/h (1 Bft)
13.06.2025 00:00 20,6 °C 11,7 °C 57 % 86 % 1022,9 hPa 0,0 l/m² 1,4 km/h (1 Bft) W 0,00 h 0 W/m² 9,4 °C 11,7 °C 2,3 km/h (1 Bft)
13.06.2025 01:00 20,6 °C 11,3 °C 57 % 82 % 1023,1 hPa 0,0 l/m² 2,2 km/h (1 Bft) W 0,00 h 0 W/m² 8,4 °C 11,3 °C 3,3 km/h (1 Bft)
13.06.2025 02:00 20,6 °C 11,9 °C 57 % 80 % 1023,5 hPa 0,0 l/m² 3,8 km/h (1 Bft) O-NO 0,00 h 0 W/m² 8,5 °C 11,9 °C 5,9 km/h (2 Bft)
13.06.2025 03:00 20,5 °C 10,9 °C 57 % 83 % 1023,5 hPa 0,0 l/m² 5,7 km/h (2 Bft) O-NO 0,00 h 0 W/m² 8,1 °C 10,8 °C 8,4 km/h (2 Bft)
13.06.2025 04:00 20,4 °C 11,0 °C 57 % 81 % 1023,7 hPa 0,0 l/m² 2,4 km/h (1 Bft) O-NO 0,00 h 5 W/m² 8,0 °C 11,0 °C 3,7 km/h (1 Bft)
13.06.2025 05:00 20,4 °C 10,2 °C 57 % 84 % 1024,0 hPa 0,0 l/m² 0,7 km/h (0 Bft) O-NO 0,03 h 23 W/m² 7,6 °C 10,2 °C 1,4 km/h (1 Bft)
13.06.2025 06:00 20,4 °C 11,6 °C 57 % 82 % 1024,2 hPa 0,0 l/m² 7,6 km/h (2 Bft) O 1,00 h 122 W/m² 8,6 °C 10,7 °C 11,2 km/h (2 Bft)
13.06.2025 07:00 20,4 °C 14,5 °C 56 % 75 % 1024,5 hPa 0,0 l/m² 7,0 km/h (2 Bft) O 1,00 h 239 W/m² 10,2 °C 13,9 °C 11,2 km/h (2 Bft)
13.06.2025 08:00 20,6 °C 17,4 °C 57 % 68 % 1025,0 hPa 0,0 l/m² 8,7 km/h (2 Bft) O 1,00 h 380 W/m² 11,5 °C 16,4 °C 12,8 km/h (3 Bft)
13.06.2025 09:00 20,6 °C 19,8 °C 55 % 64 % 1025,2 hPa 0,0 l/m² 9,9 km/h (2 Bft) O 1,00 h 614 W/m² 12,6 °C 18,4 °C 14,1 km/h (3 Bft)
13.06.2025 10:00 20,7 °C 21,8 °C 56 % 60 % 1025,2 hPa 0,0 l/m² 9,6 km/h (2 Bft) O 1,00 h 743 W/m² 13,7 °C 20,8 °C 14,1 km/h (3 Bft)
13.06.2025 11:00 20,8 °C 23,7 °C 54 % 56 % 1025,1 hPa 0,0 l/m² 12,4 km/h (2 Bft) O 1,00 h 850 W/m² 14,4 °C 22,3 °C 18,2 km/h (3 Bft)
13.06.2025 12:00 20,9 °C 25,0 °C 54 % 50 % 1024,9 hPa 0,0 l/m² 13,7 km/h (3 Bft) O 0,98 h 898 W/m² 14,0 °C 23,6 °C 20,1 km/h (4 Bft)
13.06.2025 13:00 20,9 °C 25,3 °C 55 % 49 % 1024,5 hPa 0,0 l/m² 12,4 km/h (2 Bft) O 1,02 h 740 W/m² 13,9 °C 24,0 °C 18,4 km/h (3 Bft)
13.06.2025 14:00 20,9 °C 25,6 °C 56 % 48 % 1024,1 hPa 0,0 l/m² 13,2 km/h (3 Bft) O 1,00 h 736 W/m² 13,7 °C 24,3 °C 18,5 km/h (3 Bft)
13.06.2025 15:00 21,1 °C 26,7 °C 54 % 44 % 1023,9 hPa 0,0 l/m² 14,9 km/h (3 Bft) O 0,98 h 813 W/m² 13,5 °C 25,4 °C 21,2 km/h (4 Bft)
13.06.2025 16:00 21,2 °C 26,7 °C 52 % 41 % 1023,7 hPa 0,0 l/m² 15,7 km/h (3 Bft) O 1,00 h 682 W/m² 12,4 °C 25,3 °C 22,4 km/h (4 Bft)
13.06.2025 17:00 21,2 °C 26,5 °C 53 % 42 % 1023,0 hPa 0,0 l/m² 14,7 km/h (3 Bft) O 1,02 h 519 W/m² 12,3 °C 25,1 °C 20,5 km/h (4 Bft)
13.06.2025 18:00 21,1 °C 25,6 °C 54 % 44 % 1022,7 hPa 0,0 l/m² 15,8 km/h (3 Bft) O 0,90 h 167 W/m² 12,6 °C 24,0 °C 21,1 km/h (4 Bft)
13.06.2025 19:00 21,1 °C 24,4 °C 55 % 48 % 1022,6 hPa 0,0 l/m² 11,8 km/h (2 Bft) O-NO 0,00 h 42 W/m² 12,7 °C 23,2 °C 17,1 km/h (3 Bft)
13.06.2025 20:00 21,0 °C 22,5 °C 56 % 54 % 1022,6 hPa 0,0 l/m² 5,3 km/h (1 Bft) O-NO 0,00 h 23 W/m² 12,6 °C 22,4 °C 9,3 km/h (2 Bft)
13.06.2025 21:00 21,0 °C 18,4 °C 56 % 66 % 1022,8 hPa 0,0 l/m² 4,5 km/h (1 Bft) O 0,00 h 7 W/m² 12,0 °C 18,4 °C 6,0 km/h (2 Bft)
13.06.2025 22:00 21,1 °C 16,9 °C 57 % 68 % 1022,9 hPa 0,0 l/m² 2,3 km/h (1 Bft) O-NO 0,00 h 0 W/m² 10,9 °C 16,9 °C 3,9 km/h (1 Bft)
13.06.2025 23:00 21,1 °C 15,8 °C 57 % 66 % 1022,9 hPa 0,0 l/m² 4,9 km/h (1 Bft) O-NO 0,00 h 0 W/m² 9,5 °C 15,7 °C 8,0 km/h (2 Bft)
14.06.2025 00:00 21,0 °C 14,7 °C 57 % 68 % 1022,4 hPa 0,0 l/m² 7,6 km/h (2 Bft) O 0,00 h 0 W/m² 9,0 °C 14,0 °C 12,3 km/h (2 Bft)
14.06.2025 01:00 21,0 °C 13,6 °C 57 % 74 % 1022,2 hPa 0,0 l/m² 2,6 km/h (1 Bft) O 0,00 h 0 W/m² 9,0 °C 13,6 °C 4,5 km/h (1 Bft)
14.06.2025 02:00 20,9 °C 11,8 °C 57 % 82 % 1021,9 hPa 0,0 l/m² 1,0 km/h (0 Bft) SO 0,00 h 0 W/m² 8,9 °C 11,8 °C 2,0 km/h (1 Bft)
14.06.2025 03:00 20,9 °C 10,9 °C 57 % 86 % 1022,1 hPa 0,0 l/m² 0,2 km/h (0 Bft) SO 0,00 h 0 W/m² 8,5 °C 10,9 °C 0,5 km/h (0 Bft)
14.06.2025 04:00 20,9 °C 10,0 °C 57 % 90 % 1021,9 hPa 0,0 l/m² 0,0 km/h (0 Bft) SO 0,00 h 5 W/m² 8,5 °C 10,0 °C 0,0 km/h (0 Bft)
14.06.2025 05:00 20,9 °C 9,7 °C 57 % 92 % 1021,8 hPa 0,0 l/m² 0,0 km/h (0 Bft) SO 0,05 h 23 W/m² 8,5 °C 9,7 °C 0,0 km/h (0 Bft)
14.06.2025 06:00 20,8 °C 11,7 °C 57 % 91 % 1021,9 hPa 0,0 l/m² 3,5 km/h (1 Bft) O 1,00 h 127 W/m² 10,3 °C 11,6 °C 5,4 km/h (2 Bft)
14.06.2025 07:00 20,8 °C 15,5 °C 57 % 79 % 1021,8 hPa 0,0 l/m² 6,4 km/h (2 Bft) O 1,00 h 257 W/m² 11,9 °C 15,2 °C 10,0 km/h (2 Bft)
14.06.2025 08:00 20,8 °C 18,3 °C 57 % 71 % 1021,8 hPa 0,0 l/m² 7,9 km/h (2 Bft) O 1,00 h 374 W/m² 12,9 °C 17,6 °C 11,8 km/h (2 Bft)
14.06.2025 09:00 20,9 °C 21,4 °C 56 % 65 % 1021,5 hPa 0,0 l/m² 7,6 km/h (2 Bft) O-NO 1,00 h 602 W/m² 14,4 °C 20,9 °C 12,3 km/h (2 Bft)
14.06.2025 10:00 21,0 °C 23,6 °C 56 % 59 % 1021,1 hPa 0,0 l/m² 12,1 km/h (2 Bft) O 1,00 h 746 W/m² 15,1 °C 22,2 °C 16,8 km/h (3 Bft)
14.06.2025 11:00 21,1 °C 25,5 °C 57 % 54 % 1020,9 hPa 0,0 l/m² 10,9 km/h (2 Bft) O 0,98 h 849 W/m² 15,5 °C 24,6 °C 16,4 km/h (3 Bft)
14.06.2025 12:00 21,1 °C 27,2 °C 57 % 51 % 1020,4 hPa 0,0 l/m² 10,4 km/h (2 Bft) O 1,02 h 909 W/m² 16,2 °C 26,5 °C 16,4 km/h (3 Bft)
14.06.2025 13:00 21,1 °C 28,4 °C 57 % 50 % 1019,9 hPa 0,0 l/m² 11,3 km/h (2 Bft) O 1,00 h 912 W/m² 16,8 °C 27,8 °C 17,0 km/h (3 Bft)
14.06.2025 14:00 21,1 °C 29,6 °C 57 % 46 % 1019,2 hPa 0,0 l/m² 11,4 km/h (2 Bft) O 0,98 h 871 W/m² 16,7 °C 29,2 °C 17,1 km/h (3 Bft)
14.06.2025 15:00 21,2 °C 30,0 °C 57 % 43 % 1018,9 hPa 0,0 l/m² 12,5 km/h (2 Bft) O 1,02 h 785 W/m² 16,1 °C 29,5 °C 17,8 km/h (3 Bft)
14.06.2025 16:00 21,4 °C 30,1 °C 55 % 43 % 1018,2 hPa 0,0 l/m² 12,4 km/h (2 Bft) O 1,00 h 659 W/m² 16,0 °C 29,7 °C 17,4 km/h (3 Bft)
14.06.2025 17:00 21,5 °C 29,7 °C 55 % 43 % 1017,9 hPa 0,0 l/m² 12,5 km/h (2 Bft) O-NO 1,00 h 494 W/m² 15,6 °C 29,1 °C 18,5 km/h (3 Bft)
14.06.2025 18:00 21,5 °C 28,8 °C 55 % 44 % 1017,2 hPa 0,0 l/m² 12,9 km/h (3 Bft) O 1,00 h 133 W/m² 15,5 °C 28,1 °C 18,6 km/h (3 Bft)
14.06.2025 19:00 21,7 °C 27,7 °C 56 % 49 % 1016,6 hPa 0,0 l/m² 9,3 km/h (2 Bft) O-NO 0,30 h 47 W/m² 16,0 °C 27,3 °C 14,5 km/h (3 Bft)
14.06.2025 20:00 21,8 °C 25,8 °C 56 % 54 % 1016,6 hPa 0,0 l/m² 7,9 km/h (2 Bft) O 0,00 h 25 W/m² 15,8 °C 25,4 °C 11,9 km/h (2 Bft)
14.06.2025 21:00 21,8 °C 22,7 °C 57 % 65 % 1017,1 hPa 0,0 l/m² 2,4 km/h (1 Bft) O-NO 0,00 h 6 W/m² 15,7 °C 22,7 °C 3,7 km/h (1 Bft)
14.06.2025 22:00 21,8 °C 18,7 °C 58 % 80 % 1017,2 hPa 0,0 l/m² 0,1 km/h (0 Bft) O-NO 0,00 h 0 W/m² 15,1 °C 18,7 °C 0,4 km/h (0 Bft)
14.06.2025 23:00 21,6 °C 16,8 °C 58 % 86 % 1017,1 hPa 0,0 l/m² 0,4 km/h (0 Bft) O-NO 0,00 h 0 W/m² 14,3 °C 16,8 °C 1,0 km/h (0 Bft)
15.06.2025 00:00 21,6 °C 15,8 °C 58 % 86 % 1017,1 hPa 0,0 l/m² 0,2 km/h (0 Bft) S-SW 0,00 h 0 W/m² 13,5 °C 15,8 °C 0,4 km/h (0 Bft)
15.06.2025 01:00 21,6 °C 15,1 °C 58 % 88 % 1016,6 hPa 0,0 l/m² 0,1 km/h (0 Bft) S-SW 0,00 h 0 W/m² 13,2 °C 15,1 °C 0,3 km/h (0 Bft)
15.06.2025 02:00 21,6 °C 14,5 °C 58 % 90 % 1016,2 hPa 0,0 l/m² 0,0 km/h (0 Bft) S-SW 0,00 h 0 W/m² 12,9 °C 14,5 °C 0,1 km/h (0 Bft)
15.06.2025 03:00 21,5 °C 13,9 °C 58 % 92 % 1016,2 hPa 0,0 l/m² 0,6 km/h (0 Bft) S-SW 0,00 h 0 W/m² 12,5 °C 13,9 °C 1,5 km/h (1 Bft)
15.06.2025 04:00 21,5 °C 13,9 °C 58 % 92 % 1016,0 hPa 0,0 l/m² 0,6 km/h (0 Bft) S-SW 0,00 h 5 W/m² 12,6 °C 13,9 °C 1,2 km/h (1 Bft)
15.06.2025 05:00 21,4 °C 13,6 °C 58 % 92 % 1016,4 hPa 0,0 l/m² 0,3 km/h (0 Bft) SW 0,12 h 28 W/m² 12,3 °C 13,6 °C 0,9 km/h (0 Bft)
15.06.2025 06:00 21,4 °C 15,4 °C 58 % 91 % 1016,5 hPa 0,0 l/m² 0,8 km/h (0 Bft) SW 1,00 h 106 W/m² 14,0 °C 15,4 °C 1,3 km/h (1 Bft)
15.06.2025 07:00 21,4 °C 18,8 °C 58 % 82 % 1016,3 hPa 0,0 l/m² 1,9 km/h (1 Bft) S-SW 1,00 h 219 W/m² 15,7 °C 18,8 °C 3,1 km/h (1 Bft)
15.06.2025 08:00 21,4 °C 22,3 °C 58 % 72 % 1017,0 hPa 0,0 l/m² 3,6 km/h (1 Bft) W-SW 1,00 h 363 W/m² 17,0 °C 22,3 °C 6,8 km/h (2 Bft)
15.06.2025 09:00 21,6 °C 25,3 °C 61 % 69 % 1017,0 hPa 0,0 l/m² 4,5 km/h (1 Bft) W 1,00 h 575 W/m² 19,2 °C 25,3 °C 9,2 km/h (2 Bft)
15.06.2025 10:00 21,6 °C 27,7 °C 61 % 64 % 1016,8 hPa 0,0 l/m² 7,2 km/h (2 Bft) W 1,00 h 777 W/m² 20,3 °C 27,5 °C 13,2 km/h (3 Bft)
15.06.2025 11:00 21,8 °C 27,7 °C 63 % 63 % 1016,9 hPa 0,0 l/m² 9,2 km/h (2 Bft) W 1,00 h 476 W/m² 20,1 °C 27,2 °C 15,6 km/h (3 Bft)
15.06.2025 12:00 22,2 °C 28,4 °C 68 % 65 % 1016,7 hPa 0,0 l/m² 8,7 km/h (2 Bft) W-SW 0,98 h 626 W/m² 21,2 °C 28,0 °C 14,8 km/h (3 Bft)
15.06.2025 13:00 22,3 °C 29,3 °C 68 % 62 % 1016,4 hPa 0,0 l/m² 6,1 km/h (2 Bft) W-NW 1,02 h 766 W/m² 21,1 °C 29,3 °C 12,6 km/h (3 Bft)
15.06.2025 14:00 22,3 °C 29,3 °C 66 % 63 % 1016,3 hPa 0,0 l/m² 11,2 km/h (2 Bft) NW 1,00 h 797 W/m² 21,6 °C 28,9 °C 19,9 km/h (4 Bft)
15.06.2025 15:00 22,2 °C 26,2 °C 65 % 72 % 1016,4 hPa 0,2 l/m² 12,6 km/h (3 Bft) W-NW 0,90 h 296 W/m² 20,7 °C 25,2 °C 23,5 km/h (4 Bft)
15.06.2025 16:00 22,2 °C 21,3 °C 67 % 88 % 1016,6 hPa 2,2 l/m² 8,5 km/h (2 Bft) NW 0,80 h 112 W/m² 19,3 °C 20,5 °C 14,0 km/h (3 Bft)
15.06.2025 17:00 22,2 °C 22,8 °C 68 % 84 % 1016,5 hPa 0,2 l/m² 7,3 km/h (2 Bft) W-NW 1,00 h 377 W/m² 19,9 °C 22,3 °C 14,5 km/h (3 Bft)
15.06.2025 18:00 22,2 °C 23,0 °C 68 % 77 % 1016,8 hPa 0,0 l/m² 7,3 km/h (2 Bft) NW 1,00 h 172 W/m² 18,9 °C 22,6 °C 14,8 km/h (3 Bft)
15.06.2025 19:00 22,3 °C 21,2 °C 67 % 79 % 1017,6 hPa 0,0 l/m² 10,0 km/h (2 Bft) NW 0,18 h 33 W/m² 17,4 °C 19,9 °C 20,2 km/h (4 Bft)
15.06.2025 20:00 22,3 °C 18,2 °C 68 % 85 % 1018,3 hPa 0,0 l/m² 8,3 km/h (2 Bft) W-NW 0,00 h 23 W/m² 15,6 °C 17,3 °C 17,5 km/h (3 Bft)
15.06.2025 21:00 22,6 °C 17,0 °C 67 % 82 % 1018,9 hPa 0,2 l/m² 5,9 km/h (2 Bft) W-NW 0,00 h 7 W/m² 14,0 °C 16,6 °C 13,5 km/h (3 Bft)
15.06.2025 22:00 22,4 °C 16,8 °C 66 % 81 % 1019,6 hPa 0,0 l/m² 2,3 km/h (1 Bft) W 0,00 h 0 W/m² 13,6 °C 16,8 °C 5,7 km/h (2 Bft)
15.06.2025 23:00 22,4 °C 16,5 °C 66 % 84 % 1020,4 hPa 0,0 l/m² 1,4 km/h (1 Bft) W 0,00 h 0 W/m² 13,9 °C 16,5 °C 3,9 km/h (1 Bft)
Min-Datum _ 12.06.25 12.06.25 13.06.25 14.06.25 10.06.25 - 15.06.25 - - - 12.06.25 09.06.25 15.06.25
_ Min-Zeit 07:32 05:07 16:24 16:10 16:23 - 23:20 - - - 05:07 05:33 23:47
Minimum _ 20,2 °C 5,7 °C 51 % 37 % 1012,4 hPa - 0,0 km/h (0 Bft) - - - 4,7 °C 3,1 °C 0,0 km/h (0 Bft)
Max-Datum _ 15.06.25 14.06.25 15.06.25 12.06.25 13.06.25 15.06.25 09.06.25 - 15.06.25 11.06.25 15.06.25 15.06.25 09.06.25
_ Max-Zeit 21:00 16:00 20:35 07:00 10:01 16:15 01:38 - 12:06 12:00 14:27 13:33 00:56
Maximum _ 22,6 °C 30,4 °C 69 % 95 % 1025,3 hPa 2,2 l/m² 25,7 km/h
SW (4 Bft)
- 0,10 h 1169 W/m² 22,4 °C 30,3 °C 38,6 km/h
W-SW (6 Bft)
Durchschnitt _ 20,9 °C 17,2 °C 59 % 73 % 1020,2 hPa #5,4 l/m² 6,6 km/h (2 Bft) W-SW #91:51 h 252 W/m² 11,9 °C 16,4 °C 10,4 km/h (2 Bft)
© 2009 Mathias Hoßbach